Location: Colle Santa Colomba
(42.0333°N, 12.5667°E)
Time: 22:15:38
(UTC+00:00)

Okean O Rocket - Pass Details

Date: 25 October 2021
Orbit: 623 x 643 km, 98.2° (Epoch: 05 December)

Event Time Altitude Azimuth Distance (km) Brightness Sun altitude
Rises 17:54:17 0° 183° (S) 2,889 5.0 -19.4°
Reaches altitude 10° 17:56:34 10° 191° (S) 1,989 4.3 -19.9°
Maximum altitude 18:00:38 40° 262° (W) 924 2.9 -20.6°
Drops below altitude 10° 18:04:46 10° 332° (NNW) 2,011 4.5 -21.4°
Sets 18:07:05 0° 340° (NNW) 2,926 5.3 -21.8°
